Terminal Aerodrome Forecast
Issued by NWS Milwaukee/Sullivan, WI

Home | Current Version | Previous Version | Text Only | Print | Product List | Glossary On
Versions: 1 2 3 4 5 6 7 8 9 10 11 12 13 14 15 16 17 18 19 20 21 22 23 24 25 26 27 28 29 30 31 32 33 34 35 36 37 38 39 40 41 42 43 44 45 46 47 48 49 50
721
FTUS43 KMKX 081121
TAFMKE
TAF
KMKE 081121Z 0812/0918 24007KT 3SM -SHSN SCT015 OVC025
      TEMPO 0812/0814 1 1/2SM -SHSN BKN008 BKN015 OVC025
     FM081400 29010KT 6SM -SHSN OVC015
     FM090100 32011KT 3SM -SHSN OVC015
     FM091300 33014G23KT P6SM -SHSN OVC020=

USA.gov is the U.S. government's official web portal to all federal, state and local government web resources and services.